Location: Montreal
(45.5087°N, 73.5540°W)
Time: 19:07:34
(UTC-04:00)

Envisat - Pass Details

Date: 03 February 2023
Orbit: 763 x 765 km, 98.2° (Epoch: 20 March)

Event Time Altitude Azimuth Distance (km) Brightness Sun altitude
Rises 05:43:04 0° 358° (N) 3,243 6.1 -16.0°
Reaches altitude 10° 05:46:19 10° 336° (NNW) 2,311 5.2 -15.4°
Enters shadow 05:47:34 13° 322° (NW) 2,087 4.8 -15.2°
